Theta_e
350 351 350 350 348 347 347 348 349 349 348 345 342 339 339 330 333 345 348 347 348 348 346 346 348 351 348 341 348 345 346 351 351
346 348 349 350 351 351 349 348 348 348 349 346 342 344 342 333 337 341 347 347 347 348 348 347 348 349 351 350 349 351 351 351 353
343 345 349 350 351 351 352 350 349 350 350 349 347 346 345 341 338 340 341 348 346 348 349 344 346 345 346 348 349 351 349 353 353
339 345 348 349 350 351 352 351 349 350 350 351 349 346 348 346 344 342 340 343 343 344 344 343 342 342 337 342 349 350 346 349 353
338 339 344 348 349 350 351 352 350 349 350 350 350 348 344 342 344 340 346 341 342 343 344 343 342 343 340 333 342 350 350 347 352
337 338 340 345 347 349 351 351 351 350 349 349 349 349 349 346 344 346 345 340 342 343 344 345 343 343 343 337 334 344 346 342 348
335 338 341 344 347 347 351 351 351 351 350 349 349 349 349 348 339 340 340 341 342 343 345 345 344 343 343 341 335 341 346 348 341
334 332 336 341 346 348 350 352 352 352 352 351 350 350 350 350 341 341 341 342 343 344 344 344 344 344 343 344 341 342 339 344 346
339 339 339 337 343 346 349 351 353 354 352 352 351 351 350 350 344 343 343 343 344 344 345 345 345 344 343 344 346 344 337 334 339
336 337 339 342 343 342 345 349 351 353 353 352 352 351 350 349 347 346 345 344 345 345 345 345 344 344 344 343 344 342 337 333 332
336 338 339 340 341 343 343 345 346 352 353 353 352 352 350 348 345 346 346 346 345 346 346 346 345 344 344 344 343 341 339 339 338
335 339 341 342 343 344 346 345 346 349 352 354 353 352 347 345 345 345 346 347 346 346 346 346 345 344 344 343 342 341 339 341 343
335 339 342 345 347 349 349 349 345 347 351 352 353 351 346 347 346 346 346 347 346 346 346 345 346 346 344 342 340 339 338 340 342
327 331 338 345 352 353 351 351 345 347 351 351 351 354 354 353 350 346 346 346 346 346 346 348 345 345 343 341 339 339 336 336 339
323 325 329 344 354 352 350 346 343 349 351 352 354 354 354 354 349 351 353 346 346 347 347 346 348 345 347 346 338 337 336 336 338
319 321 323 330 346 353 354 351 351 354 352 353 355 356 356 355 349 353 352 346 347 348 347 356 356 358 358 358 358 352 347 348 349
315 315 315 320 325 342 352 355 355 355 355 356 356 357 358 358 352 355 357 358 358 358 358 358 358 359 359 360 360 361 362 353 352
314 313 314 314 319 325 333 342 350 353 357 357 357 358 359 359 359 358 359 359 360 360 359 360 360 360 360 361 361 362 363 364 363
314 314 314 315 315 318 323 328 339 350 355 357 356 357 357 357 358 360 359 360 360 359 360 359 360 360 361 362 363 363 363 361 359
317 318 316 316 317 315 320 317 324 336 346 353 354 356 357 359 360 358 359 360 361 358 356 356 356 357 360 361 363 360 360 358 357
Wind_Speed
28 29 31 35 38 39 39 40 41 39 39 44 44 43 40 40 37 30 27 24 20 18 17 16 15 16 16 14 12 11 11 8 8
25 28 31 35 37 39 39 41 44 45 42 44 46 43 43 42 40 38 28 27 24 22 19 17 17 17 17 17 15 15 13 10 10
24 24 27 31 34 37 39 39 40 41 40 41 44 43 43 43 43 41 39 30 30 25 21 22 19 18 19 18 17 18 17 13 12
26 22 25 29 33 37 39 37 38 41 39 39 41 45 41 42 41 41 41 37 35 32 28 26 22 21 19 19 18 19 21 18 15
32 30 27 28 29 32 36 39 40 42 40 39 38 43 48 47 43 43 37 41 38 34 31 29 25 24 22 22 21 20 21 21 17
24 25 27 26 25 29 35 38 41 42 42 40 38 39 41 43 44 42 41 42 39 36 33 30 29 28 27 25 24 23 23 24 21
11 15 20 22 24 27 31 36 41 44 42 40 39 38 39 41 48 47 45 44 42 38 35 32 31 31 30 28 26 25 24 23 25
5 6 13 23 26 27 30 34 38 42 41 40 40 43 41 42 47 47 46 45 42 39 37 34 33 32 32 30 29 26 27 26 25
9 6 6 10 18 23 27 31 36 39 44 43 43 46 48 46 48 48 47 46 43 41 38 36 34 35 35 34 31 29 31 30 27
9 8 9 11 12 17 24 29 32 37 44 42 43 47 48 49 49 49 47 45 44 44 41 38 36 37 36 36 35 33 32 32 32
9 10 11 13 15 18 21 23 26 28 32 41 44 44 47 47 46 47 46 45 44 43 41 40 39 39 38 37 37 36 34 33 33
11 14 15 16 17 20 19 23 27 30 32 36 41 46 49 49 45 45 45 44 45 43 41 40 40 39 39 39 39 38 36 34 35
13 14 14 16 18 20 23 25 26 33 35 36 44 47 46 47 45 43 43 43 42 41 40 39 37 37 38 39 39 37 36 34 35
11 13 15 17 15 17 23 23 28 37 37 41 41 33 33 37 40 41 39 39 37 37 37 34 37 35 36 37 37 37 36 34 36
16 16 17 15 10 8 10 17 29 35 40 31 29 30 31 35 37 34 31 34 33 33 33 34 35 35 34 33 36 36 35 35 36
21 21 19 18 15 6 3 11 20 26 29 29 27 29 32 32 31 32 32 33 33 31 33 28 29 27 27 26 25 30 33 33 33
22 28 31 23 18 20 15 12 12 17 21 25 27 27 27 26 26 25 25 23 24 25 26 27 26 26 25 24 23 23 22 30 32
20 24 24 27 25 20 21 17 15 12 12 21 23 22 22 21 21 22 21 21 19 21 21 23 23 24 22 23 23 22 22 21 20
19 19 21 22 25 25 23 18 17 21 19 18 20 21 20 20 20 18 19 19 19 23 24 25 27 25 24 20 22 24 25 24 24
18 18 19 18 22 21 19 18 20 19 20 24 20 27 25 19 20 21 20 18 16 12 13 24 26 31 30 29 19 29 28 23 23
Wind_Direction
206 205 206 206 205 204 205 205 205 204 207 210 211 214 216 218 219 216 218 223 215 222 221 225 223 233 232 239 241 240 237 225 214
201 207 208 208 205 205 204 205 206 206 206 210 211 211 216 218 219 217 219 219 231 225 226 226 230 230 231 233 237 232 230 219 226
214 210 210 208 207 206 206 205 206 206 207 210 210 211 216 217 219 221 223 227 230 230 227 235 228 238 231 232 230 228 229 227 235
211 205 206 207 207 208 207 204 202 205 205 206 208 212 212 213 218 222 226 228 235 236 235 236 236 242 238 227 224 227 232 228 222
222 221 214 212 210 206 205 204 203 203 204 204 207 208 214 218 218 220 221 228 232 235 234 233 234 238 237 232 228 228 233 235 230
216 221 222 219 212 206 206 205 204 203 204 204 204 206 209 213 216 218 220 226 228 232 233 233 233 235 237 235 232 231 235 239 237
236 217 227 216 210 207 207 206 206 205 205 204 203 203 206 210 216 217 219 222 225 229 232 234 234 234 236 237 236 233 234 237 242
259 249 224 218 216 212 208 207 207 207 206 205 203 205 204 210 214 216 219 222 224 227 230 233 234 236 237 239 238 234 237 236 238
261 241 228 225 223 219 214 211 208 207 204 205 202 205 208 209 215 217 220 224 227 229 230 233 234 233 234 236 237 236 237 240 240
267 255 250 249 238 227 221 218 213 211 207 204 205 206 208 210 217 217 220 223 226 229 229 230 230 231 232 236 239 241 243 243 244
298 288 276 261 251 242 231 224 220 215 210 205 205 205 211 214 219 219 218 220 223 226 226 227 228 230 233 237 240 242 244 245 246
314 301 288 276 263 253 241 226 217 214 207 207 205 206 215 219 219 219 219 219 220 221 222 223 227 230 233 236 240 242 243 244 245
330 312 301 290 271 259 244 231 211 209 207 205 206 208 214 215 217 217 217 218 218 218 220 222 224 229 233 237 240 242 243 244 244
355 346 333 314 297 265 247 230 210 207 203 209 211 205 203 209 214 218 219 217 215 217 219 219 225 228 233 237 240 241 242 240 240
19 20 16 4 348 295 231 211 196 202 201 204 201 202 200 204 212 208 210 215 213 214 215 220 224 227 231 235 238 240 241 240 239
32 34 28 40 39 57 117 185 190 192 196 197 196 195 199 201 201 203 203 206 206 208 213 211 218 222 227 230 235 241 242 243 241
31 43 46 37 33 65 90 122 168 193 194 193 192 191 195 193 199 202 200 206 209 209 212 215 216 220 223 225 226 227 227 229 232
28 32 43 42 48 49 58 76 116 132 179 186 183 182 187 185 187 195 198 196 206 212 214 218 219 219 221 220 223 228 227 224 234
26 31 35 35 35 55 55 64 85 107 119 152 167 172 170 175 179 186 186 194 207 208 209 218 218 213 216 227 219 221 231 237 223
26 29 38 29 25 36 43 46 70 82 105 114 126 144 142 151 158 163 172 177 182 195 230 239 234 230 222 216 219 221 228 233 233